sat.trackr.live / text

‹ back to catalog

STARLINK-5594

NORAD 55742 · 2023-028B

PAYLOAD ACTIVE UNKNOWN

§ Identity

Operator
Country
US
Launch date
2023-03-03
Launch site
AFWTR
Launch vehicle
Mass (kg)
RCS (m²)

Purposes: comms

External: N2YO · Heavens-Above · Gunter

§ Orbital elements

Epoch: 2026-05-25T04:14:09.942144Z

Period
96.11 min
Inclination
70.0009°
Eccentricity
0.0002181
Mean motion
14.98332049 rev/d
Perigee alt
570.5 km
Apogee alt
573.6 km
Semi-major
6,950.2 km
B*
2.0175e-5
RAAN
51.7490°
Arg perigee
279.2774°
Mean anomaly
80.8138°
Rev number
17,749

§ Raw data

STARLINK-55941 55742U 23028B   26145.17650396  .00000148  00000+0  20175-4 0  99942 55742  70.0009  51.7490 0002181 279.2774  80.8138 14.98332049177496

JSON: /api/v1/satellites/55742 · /tle

For live sub-satellite position, see the globe view (requires WebGL).

§ Visibility from observer

Set your observer location to see the next 7 days of passes ≥ 10°. The values pass through the URL so the page stays shareable.

No JS? Fill the form by hand. The geolocation button needs JavaScript.